Flag for Hungary Weather past 2 weeks in Győr, Hungary

Now
50 °F

Cool.


Feels Like: 50 °F
Forecast: 35 / 52 °F
Wind: 2 mph from Northwest

Location: Gyor

Current Time: Feb 28, 2015 at 2:01:25 PM

Latest Report: Feb 28, 2015 at 1:00 PM


Visibility: N/A

Pressure: 30.09 "Hg

Humidity: 63%

Dew point: 37 °F

Location of GyőrLocation

Historic Weather in Győr — Graph

°F

Győr temperature yesterday

Maximum temperature yesterday: 49 °F (at 2:00 PM)
Minimum temperature yesterday: 31 °F (at 7:00 AM)
Average temperature yesterday: 41 °F

Past Weeks' High & Low Weather Summary

 TemperatureHumidityPressure
High54 °F (Feb 21, 3:00 PM)98% (Feb 24, 8:00 AM)30.78 "Hg (Feb 24, 8:00 AM)
Low22 °F (Feb 18, 7:00 AM)36% (Feb 20, 4:00 PM)29.64 "Hg (Feb 23, 5:00 PM)
Average39 °F76%30.10 "Hg
* Reported Feb 13 1:00 PM — Feb 28 1:00 PM, Győr, Weather by CustomWeather, © 2015

Note: Actual official high and low records may vary slightly from our data, if they occured in-between our weather recording intervals... More about our weather records

Advertising

Győr weather history for previous 24 hours

 ConditionsComfort  
Time TempWeatherWind HumidityBarometerVisibility
1:00 PM
Sat, Feb 28
50 °FCool.2 mph63%30.09 "HgN/A
12:00 PM49 °FCool.3 mph65%30.10 "HgN/A
11:00 AM47 °FCool.3 mph67%30.10 "HgN/A
10:00 AM43 °FQuite cool.3 mph72%30.11 "HgN/A
9:00 AM41 °FQuite cool.2 mph82%30.10 "HgN/A
8:00 AM38 °FChilly.No wind88%30.09 "HgN/A
7:00 AM37 °FChilly.No wind90%30.06 "HgN/A
6:00 AM38 °FChilly.No wind89%30.06 "HgN/A
5:00 AM39 °FChilly.1 mph86%30.05 "HgN/A
3:00 AM40 °FQuite cool.1 mph82%30.04 "HgN/A
2:00 AM40 °FQuite cool.1 mph83%30.03 "HgN/A
1:00 AM40 °FQuite cool.1 mph81%30.03 "HgN/A
12:00 AM41 °FQuite cool.1 mph78%30.02 "HgN/A
11:00 PM
Fri, Feb 27
41 °FQuite cool.1 mph78%30.02 "HgN/A
10:00 PM42 °FQuite cool.No wind77%30.01 "HgN/A
9:00 PM42 °FQuite cool.2 mph75%29.99 "HgN/A
8:00 PM42 °FQuite cool.2 mph74%29.98 "HgN/A
7:00 PM42 °FQuite cool.2 mph74%29.98 "HgN/A
6:00 PM43 °FQuite cool.3 mph74%29.96 "HgN/A
5:00 PM44 °FQuite cool.3 mph71%29.95 "HgN/A
4:00 PM45 °FCool.3 mph67%29.93 "HgN/A
3:00 PM46 °FCool.5 mph66%29.93 "HgN/A
2:00 PM49 °FCool.3 mph63%29.93 "HgN/A
Weather by CustomWeather, © 2015

See weather overviewHow to use our weather pages